Flag for Angola Weather past 2 weeks in Lubango, Angola

Now
75 °F

Passing clouds.


Feels Like: 76 °F
Forecast: 39 / 74 °F
Wind: 6 mph from Southwest

Location: Luanda Airport

Current Time: May 30, 2015 at 8:23:05 PM

Latest Report: May 30, 2015 at 8:00 PM


Visibility: N/A

Pressure: 29.92 "Hg

Humidity: 78%

Dew point: 68 °F

Location of LubangoLocation

Historic Weather in Lubango — Graph

°F

Lubango temperature yesterday

Maximum temperature yesterday: 81 °F (at 10:00 AM)
Minimum temperature yesterday: 72 °F (at 6:00 AM)
Average temperature yesterday: 76 °F

Past Weeks' High & Low Weather Summary

 TemperatureHumidityPressure
High90 °F (May 20, 2:00 PM)94% (May 16, 5:00 AM)30.15 "Hg (May 16, 5:00 AM)
Low61 °F (May 26, 6:00 AM)52% (May 27, 12:00 PM)29.77 "Hg (May 18, 4:00 PM)
Average79 °F77%29.90 "Hg
* Reported May 15 7:00 PM — May 30 7:00 PM, Lubango, Weather by CustomWeather, © 2015

Note: Actual official high and low records may vary slightly from our data, if they occured in-between our weather recording intervals... More about our weather records

Advertising

Lubango weather history for previous 24 hours

 ConditionsComfort  
Time TempWeatherWind HumidityBarometerVisibility
7:00 PM
Sat, May 30
75 °FPartly cloudy.7 mph78%29.89 "HgN/A
6:00 PM75 °FPassing clouds.12 mph78%29.86 "HgN/A
5:00 PM79 °FPartly sunny.9 mph70%29.86 "HgN/A
4:00 PM79 °FPartly sunny.9 mph70%29.86 "HgN/A
3:00 PM79 °FPartly sunny.9 mph74%29.86 "HgN/A
2:00 PM81 °FBroken clouds.9 mph66%29.89 "HgN/A
1:00 PM82 °FScattered clouds.7 mph62%29.92 "HgN/A
12:00 PM82 °FBroken clouds.5 mph62%29.92 "HgN/A
11:00 AM81 °FPartly sunny.5 mph62%29.95 "HgN/A
10:00 AM79 °FPartly sunny.5 mph70%29.98 "HgN/A
9:00 AM77 °FPartly sunny.6 mph74%29.98 "HgN/A
8:00 AM75 °FPartly sunny.5 mph78%29.95 "HgN/A
7:00 AM72 °FPartly sunny.3 mph88%29.92 "Hg5 mi
6:00 AM70 °FOvercast.3 mph88%29.92 "HgN/A
5:00 AM70 °FPassing clouds.2 mph88%29.89 "HgN/A
4:00 AM72 °FPassing clouds.2 mph88%29.92 "HgN/A
3:00 AM72 °FPassing clouds.2 mph83%29.89 "HgN/A
2:00 AM72 °FPassing clouds.2 mph88%29.92 "HgN/A
1:00 AM72 °FPassing clouds.3 mph88%29.92 "HgN/A
12:00 AM72 °FClear.5 mph88%29.92 "Hg10 mi
11:00 PM
Fri, May 29
72 °FClear.5 mph88%29.92 "Hg10 mi
10:00 PM73 °FClear.7 mph83%29.89 "Hg10 mi
9:00 PM73 °FClear.8 mph83%29.89 "Hg10 mi
8:00 PM73 °FClear.7 mph83%29.86 "Hg10 mi
Weather by CustomWeather, © 2015

See weather overviewHow to use our weather pages